This demonstration page uses our WeatherBlox Daily Observations layout. Learn more.

Left ArrowRight Arrow

39.08367, -84.50855

Hourly Observations for August 22, 2019

Temp ( °F °C ) Dew Point ( °F °C ) Humidity (%) Winds ( mph kmh ) Pressure ( in mb ) Visibility ( mi km ) Precip ( " mm )
12:53 am 00:53 Clear 69 20.6 69 20.6 100 100 N N/A 29.95 1014 9 14 N/A
1:53 am 01:53 Partly Cloudy 70 21.1 69 20.6 97 97 N N/A 29.96 1015 8 13 N/A
2:53 am 02:53 Clear 70 21.1 69 20.6 97 97 NNE 5 7 29.95 1014 8 13 N/A
3:53 am 03:53 Partly Cloudy 71 21.7 69 20.6 94 94 NNE 3 6 29.96 1015 9 14 N/A
4:53 am 04:53 Mostly Cloudy 71 21.7 70 21.1 96 96 N N/A 29.95 1014 8 13 N/A
5:53 am 05:53 Mostly Cloudy 71 21.7 70 21.1 96 96 SW 9 15 29.98 1015 8 13 0.00 0.00
6:13 am 06:13 Mostly Cloudy with Light Rain 74 23.3 70 21.1 88 88 W 17 28 30.00 1016 10 16 0.00 0.00
6:21 am 06:21 Cloudy with Thunderstorms 74 23.3 70 21.1 88 88 W 14 22 30.01 1016 8 13 0.01 0.25
6:53 am 06:53 Cloudy with Thunderstorms 72 22.2 70 21.1 94 94 WNW 3 6 30.01 1016 4 6 0.11 2.79
7:53 am 07:53 Mostly Sunny 71 21.7 69 20.6 94 94 NE 6 9 29.94 1014 7 11 0.06 1.52
8:53 am 08:53 Mostly Sunny 71 21.7 70 21.1 96 96 SW 5 7 29.94 1014 10 16 N/A
9:49 am 09:49 Partly Cloudy 73 23 70 21 89 89 W 3 6 29.96 1015 10 16 N/A
9:53 am 09:53 Partly Cloudy 73 22.8 70 21.1 90 90 W 6 9 29.97 1015 10 16 N/A
10:03 am 10:03 Mostly Cloudy 74 23.3 70 21.1 88 88 W 6 9 29.97 1015 10 16 N/A
10:53 am 10:53 Partly Cloudy 74 23.3 69 20.6 85 85 W 6 9 29.99 1016 10 16 N/A
11:53 am 11:53 Partly Cloudy 76 24.4 69 20.6 79 79 SSW 8 13 30.00 1016 10 16 N/A
12:53 pm 12:53 Cloudy 77 25 69 20.6 77 77 VRB 3 6 30.00 1016 10 16 N/A
1:53 pm 13:53 Mostly Cloudy 79 26.1 69 20.6 72 72 WSW 6 9 30.00 1016 10 16 N/A
2:53 pm 14:53 Cloudy 78 25.6 69 20.6 74 74 WNW 7 11 29.98 1015 10 16 0.01 0.25
3:14 pm 15:14 Cloudy with Light Rain 78 25.6 71 21.7 79 79 W 6 9 29.97 1015 8 13 0.00 0.00
3:53 pm 15:53 Mostly Cloudy 79 26.1 71 21.7 77 77 SSW 5 7 29.96 1014 10 16 0.00 0.00
4:09 pm 16:09 Mostly Cloudy 79 26.1 71 21.7 77 77 NW 5 7 29.95 1014 10 16 N/A
4:17 pm 16:17 Mostly Cloudy 80 26.7 70 21.1 71 71 NW 6 9 29.95 1014 10 16 N/A
4:53 pm 16:53 Partly Cloudy 80 26.7 69 20.6 69 69 WSW 3 6 29.94 1014 10 16 N/A
5:53 pm 17:53 Mostly Cloudy 81 27.2 69 20.6 67 67 W 6 9 29.95 1014 10 16 N/A
6:53 pm 18:53 Mostly Cloudy 79 26.1 69 20.6 72 72 N 6 9 29.96 1014 10 16 N/A
7:53 pm 19:53 Cloudy 77 25 71 21.7 82 82 N N/A 29.96 1014 10 16 N/A
8:53 pm 20:53 Mostly Cloudy 74 23.3 69 20.6 85 85 ENE 5 7 29.96 1015 10 16 N/A
9:53 pm 21:53 Mostly Cloudy 72 22.2 70 21.1 94 94 N N/A 29.96 1015 10 16 N/A
10:53 pm 22:53 Mostly Cloudy 72 22.2 70 21.1 94 94 N N/A 29.97 1015 10 16 0.00 0.00
11:53 pm 23:53 Cloudy with Light Rain 72 22.2 71 21.7 97 97 N N/A 29.98 1015 10 16 0.00 0.00

Powered by AerisWeather